This demonstration page uses our WeatherBlox Daily Observations layout. Learn more.

Left ArrowRight Arrow

34.16533, -84.80231

Hourly Observations for August 19, 2020

Temp ( °F °C ) Dew Point ( °F °C ) Humidity (%) Winds ( mph kmh ) Pressure ( in mb ) Visibility ( mi km ) Precip ( " mm )
12:53 am 00:53 Clear 72 22.2 66 18.9 82 82 Calm 29.86 1011 10 16 0.00 0.00
1:53 am 01:53 Mostly Cloudy 72 22.2 67 19.4 84 84 S 3 6 29.86 1011 10 16 0.00 0.00
2:53 am 02:53 Clear 71 21.7 65 18.3 81 81 Calm 29.84 1011 10 16 0.00 0.00
3:53 am 03:53 Clear 69 20.6 65 18.3 87 87 Calm 29.85 1011 10 16 0.00 0.00
4:53 am 04:53 Clear 69 20.6 65 18.3 87 87 Calm 29.84 1011 10 16 0.00 0.00
5:53 am 05:53 Clear 68 20 65 18.3 90 90 SE 3 6 29.85 1011 9 14 0.00 0.00
6:53 am 06:53 Clear 69 20.6 66 18.9 90 90 Calm 29.87 1012 9 14 0.00 0.00
7:53 am 07:53 Sunny 70 21.1 67 19.4 90 90 Calm 29.88 1012 7 11 0.00 0.00
8:53 am 08:53 Partly Cloudy 76 24.4 69 20.6 79 79 ENE 3 6 29.89 1012 10 16 0.00 0.00
9:53 am 09:53 Mostly Sunny 80 26.7 71 21.7 74 74 Calm 29.89 1012 10 16 0.00 0.00
10:53 am 10:53 Sunny 84 28.9 71 21.7 65 65 VRB 3 6 29.89 1012 10 16 0.00 0.00
11:53 am 11:53 Sunny 86 30 71 21.7 61 61 VRB 5 7 29.89 1012 10 16 0.00 0.00
12:53 pm 12:53 Mostly Sunny 88 31.1 68 20 52 52 Calm 29.87 1012 10 16 0.00 0.00
1:53 pm 13:53 Mostly Sunny 90 32.2 65 18.3 44 44 VRB 3 6 29.84 1011 10 16 0.00 0.00
2:53 pm 14:53 Sunny 89 31.7 68 20 50 50 S 8 13 29.83 1010 10 16 0.00 0.00
3:23 pm 15:23 Partly Cloudy with Nearby Thunderstorms 87 30.6 69 20.6 55 55 SSE 8 13 29.81 1009 10 16 0.00 0.00
3:53 pm 15:53 Sunny with Nearby Thunderstorms 89 31.7 70 21.1 53 53 S 8 13 29.81 1009 10 16 0.00 0.00
4:41 pm 16:41 Mostly Sunny 80 26.7 64 17.8 58 58 N 15 24 29.83 1010 10 16 0.00 0.00
4:48 pm 16:48 Sunny with Thunderstorms 79 26 64 18 61 61 N 13 20 29.84 1010 10 16 0.00 0.00
4:53 pm 16:53 Sunny with Thunderstorms 78 25.6 64 17.8 62 62 N 12 19 29.85 1011 10 16 0.00 0.00
5:09 pm 17:09 Partly Cloudy with Nearby Thunderstorms 74 23.3 65 18.3 74 74 NNE 10 17 29.86 1011 10 16 0.00 0.00
5:27 pm 17:27 Mostly Cloudy with Thunderstorms 74 23.3 65 18.3 74 74 VRB 5 7 29.91 1013 4 6 0.02 0.51
5:36 pm 17:36 Cloudy with Nearby Thunderstorms 72 22.2 66 18.9 82 82 undefined N/A 29.91 1013 6 10 0.02 0.51
5:44 pm 17:44 Cloudy with Nearby Thunderstorms 72 22.2 67 19.4 84 84 VRB 7 11 29.89 1012 5 8 0.05 1.27
5:47 pm 17:47 Cloudy with Nearby Thunderstorms 72 22 66 19 83 83 NNW 7 11 29.89 1012 2 3 0.14 3.56
5:53 pm 17:53 Cloudy with Nearby Thunderstorms 70 21.1 67 19.4 90 90 N 9 15 29.87 1012 1 2 0.20 5.08
6:00 pm 18:00 Cloudy with Nearby Thunderstorms 72 22.2 68 20 87 87 NE 6 9 29.87 1011 3 5 0.01 0.25
6:19 pm 18:19 Mostly Cloudy with Light Rain 71 21.7 68 20 90 90 E 7 11 29.89 1012 10 16 0.02 0.51
6:53 pm 18:53 Partly Cloudy with Nearby Thunderstorms 71 21.7 67 19.4 87 87 ESE 6 9 29.89 1012 10 16 0.02 0.51
7:25 pm 19:25 Mostly Cloudy 71 21.7 67 19.4 87 87 NE 5 7 29.91 1013 10 16 0.01 0.25
7:53 pm 19:53 Mostly Cloudy 71 21.7 67 19.4 87 87 ESE 5 7 29.89 1012 10 16 0.01 0.25
8:53 pm 20:53 Mostly Clear 71 21.7 67 19.4 87 87 E 3 6 29.90 1013 10 16 0.00 0.00
9:53 pm 21:53 Clear 70 21.1 67 19.4 90 90 Calm 29.89 1012 9 14 0.00 0.00
10:53 pm 22:53 Clear 70 21.1 66 18.9 87 87 NE 3 6 29.90 1013 10 16 0.00 0.00
11:53 pm 23:53 Clear 69 20.6 67 19.4 93 93 Calm 29.90 1013 10 16 0.00 0.00

Powered by AerisWeather